Погода в Кельчиюре

Россия / Республика Коми     65°16′26″N   52°59′51″E
темп.,
°C
ветер,
м/с
пор.,
м/с
влажн.,
%
обл.,
%
осадки,
мм/ч
давл.,
гПа
погр.,
м
14 апреля, ср
ср1400:00+6зюз31096100 0.0 1018413
03:00+5юз3993100 0.0 1018303
06:00+6ююз3993100 0.0 1016341
09:00+9юз41184100 0.0 1014693
12:00+10юз4107792 0.0 1012835
15:00+11юз51279100 0.0 10101027
18:00+9юз31094100 2.1 1005737
21:00+1сз41298100 8.5 1009508
15 апреля, чт
чт1500:00+2зюз41196100 0.8 1010856
03:00+1з5107656 0.9 1013950
06:000з51075100 0.0 10141180
09:00+2з5126499 0.1 10161557
12:00+3зсз7116140 0.4 10181810
15:00+3зсз610597 1.0 10211701
18:00−1ссв467954 0.8 1024645
21:00−2ссв14768 0.8 1027435
16 апреля, пт
пт1600:00−2ююз127575 0.0 1028250
03:00−1юз378796 0.0 1027583
06:00−1юз41086100 0.1 1025738
09:00+1зюз51092100 1.1 1024860
12:00+2зсз5988100 0.8 1023939
15:00+3ссз610608 1.3 10251376
18:00−2ссз510626 0.0 1028984
21:00−4ссз376973 0.0 1030724
17 апреля, сб
сб1700:00−4зсз2668100 0.0 1029580
03:00−3зюз3866100 0.0 1026628
06:00−2зюз41192100 0.6 1023598
09:00+1зсз71595100 3.3 10181117
12:00+1сз61571100 1.6 10201659
15:00+1ссз6145939 1.8 10221882
18:00−1ссз51166100 0.1 10231395
21:00−2ссз49775 0.3 1025945
18 апреля, вс
вс1800:00−4с4887100 0.1 1028812
03:00−7ссв37785 0.1 1032477
06:00−7ссв35653 0.0 1035492
09:00−4ссв23400 0.0 1036883
12:000ссв234466 0.0 10351476
15:00+1ссв224037 0.0 10361573
18:00−1с11545 0.0 103716
21:00−4с11785 0.0 103718